******** Week 288 almanac for PRN-02 ******** ID: 02 Health: 000 Eccentricity: 0.1625537872E-001 Time of Applicability(s): 405504.0000 Orbital Inclination(rad): 0.9669735518 Rate of Right Ascen(r/s): -0.7908900866E-008 SQRT(A) (m 1/2): 5153.641113 Right Ascen at Week(rad): -0.5698341650E+000 Argument of Perigee(rad): -1.117756298 Mean Anom(rad): 0.2819053344E+001 Af0(s): -0.3347396851E-003 Af1(s/s): 0.7275957614E-011 week: 288 ******** Week 288 almanac for PRN-03 ******** ID: 03 Health: 000 Eccentricity: 0.5696773529E-002 Time of Applicability(s): 405504.0000 Orbital Inclination(rad): 0.9866516491 Rate of Right Ascen(r/s): -0.7531742299E-008 SQRT(A) (m 1/2): 5153.600586 Right Ascen at Week(rad): 0.5668242520E+000 Argument of Perigee(rad): 1.163836392 Mean Anom(rad): -0.7146627739E+000 Af0(s): 0.5731582642E-003 Af1(s/s): 0.1091393642E-010 week: 288 ******** Week 288 almanac for PRN-04 ******** ID: 04 Health: 000 Eccentricity: 0.3087520599E-002 Time of Applicability(s): 405504.0000 Orbital Inclination(rad): 0.9655054842 Rate of Right Ascen(r/s): -0.8160339911E-008 SQRT(A) (m 1/2): 5153.631836 Right Ascen at Week(rad): 0.1644189967E+001 Argument of Perigee(rad): -3.007256983 Mean Anom(rad): 0.2357912728E+001 Af0(s): 0.4634857178E-003 Af1(s/s): 0.7275957614E-011 week: 288 ******** Week 288 almanac for PRN-05 ******** ID: 05 Health: 000 Eccentricity: 0.5792617798E-002 Time of Applicability(s): 405504.0000 Orbital Inclination(rad): 0.9735828518 Rate of Right Ascen(r/s): -0.7657461821E-008 SQRT(A) (m 1/2): 5153.643066 Right Ascen at Week(rad): 0.5136371383E+000 Argument of Perigee(rad): 1.336192391 Mean Anom(rad): 0.2981906976E+001 Af0(s): -0.1897811890E-003 Af1(s/s): 0.0000000000E+000 week: 288 ******** Week 288 almanac for PRN-06 ******** ID: 06 Health: 000 Eccentricity: 0.3149032593E-002 Time of Applicability(s): 405504.0000 Orbital Inclination(rad): 0.9896836580 Rate of Right Ascen(r/s): -0.7657461821E-008 SQRT(A) (m 1/2): 5153.675781 Right Ascen at Week(rad): -0.4683719718E+000 Argument of Perigee(rad): -0.771771725 Mean Anom(rad): 0.7718073033E+000 Af0(s): -0.4577636719E-004 Af1(s/s): -0.2910383046E-010 week: 288 ******** Week 288 almanac for PRN-07 ******** ID: 07 Health: 000 Eccentricity: 0.1879310608E-001 Time of Applicability(s): 405504.0000 Orbital Inclination(rad): 0.9506031006 Rate of Right Ascen(r/s): -0.7851755629E-008 SQRT(A) (m 1/2): 5153.550293 Right Ascen at Week(rad): 0.2656425914E+001 Argument of Perigee(rad): -2.097837446 Mean Anom(rad): -0.1354850331E+000 Af0(s): -0.2670288086E-004 Af1(s/s): 0.3637978807E-011 week: 288 ******** Week 288 almanac for PRN-08 ******** ID: 08 Health: 000 Eccentricity: 0.9783744812E-002 Time of Applicability(s): 405504.0000 Orbital Inclination(rad): 0.9506390532 Rate of Right Ascen(r/s): -0.8560356573E-008 SQRT(A) (m 1/2): 5153.636719 Right Ascen at Week(rad): -0.1569449600E+001 Argument of Perigee(rad): 0.372588803 Mean Anom(rad): 0.2675798039E+001 Af0(s): 0.3871917725E-003 Af1(s/s): 0.1091393642E-010 week: 288 ******** Week 288 almanac for PRN-09 ******** ID: 09 Health: 000 Eccentricity: 0.3177165985E-002 Time of Applicability(s): 405504.0000 Orbital Inclination(rad): 0.9592197583 Rate of Right Ascen(r/s): -0.8228914196E-008 SQRT(A) (m 1/2): 5153.510742 Right Ascen at Week(rad): 0.1583533311E+001 Argument of Perigee(rad): 1.997821225 Mean Anom(rad): -0.3097085115E+001 Af0(s): 0.4024505615E-003 Af1(s/s): 0.1818989404E-010 week: 288 ******** Week 288 almanac for PRN-10 ******** ID: 10 Health: 000 Eccentricity: 0.9802341461E-002 Time of Applicability(s): 405504.0000 Orbital Inclination(rad): 0.9862921223 Rate of Right Ascen(r/s): -0.7486026109E-008 SQRT(A) (m 1/2): 5153.643066 Right Ascen at Week(rad): 0.5642828473E+000 Argument of Perigee(rad): -2.373627043 Mean Anom(rad): -0.1643859652E+001 Af0(s): -0.1621246338E-003 Af1(s/s): -0.1455191523E-010 week: 288 ******** Week 288 almanac for PRN-11 ******** ID: 11 Health: 000 Eccentricity: 0.1716613770E-002 Time of Applicability(s): 405504.0000 Orbital Inclination(rad): 0.9663204115 Rate of Right Ascen(r/s): -0.7863184676E-008 SQRT(A) (m 1/2): 5153.517578 Right Ascen at Week(rad): -0.4385057853E+000 Argument of Perigee(rad): -2.457010659 Mean Anom(rad): 0.1792274540E+001 Af0(s): -0.7448196411E-003 Af1(s/s): -0.3637978807E-011 week: 288 ******** Week 288 almanac for PRN-12 ******** ID: 12 Health: 000 Eccentricity: 0.8764266968E-002 Time of Applicability(s): 405504.0000 Orbital Inclination(rad): 0.9618083508 Rate of Right Ascen(r/s): -0.7920329914E-008 SQRT(A) (m 1/2): 5153.537109 Right Ascen at Week(rad): -0.2511247516E+001 Argument of Perigee(rad): 1.465758341 Mean Anom(rad): -0.8558335727E+000 Af0(s): -0.5455017090E-003 Af1(s/s): -0.3637978807E-011 week: 288 ******** Week 288 almanac for PRN-13 ******** ID: 13 Health: 000 Eccentricity: 0.8713245392E-002 Time of Applicability(s): 405504.0000 Orbital Inclination(rad): 0.9718691077 Rate of Right Ascen(r/s): -0.8091765626E-008 SQRT(A) (m 1/2): 5153.626953 Right Ascen at Week(rad): 0.1751684345E+001 Argument of Perigee(rad): 0.970593387 Mean Anom(rad): 0.2355836836E+001 Af0(s): 0.6818771362E-003 Af1(s/s): 0.0000000000E+000 week: 288 ******** Week 288 almanac for PRN-14 ******** ID: 14 Health: 000 Eccentricity: 0.4949092865E-002 Time of Applicability(s): 405504.0000 Orbital Inclination(rad): 0.9451742467 Rate of Right Ascen(r/s): -0.8011762293E-008 SQRT(A) (m 1/2): 5153.650879 Right Ascen at Week(rad): -0.2557943673E+001 Argument of Perigee(rad): -2.857563902 Mean Anom(rad): -0.9918346765E+000 Af0(s): 0.5197525024E-003 Af1(s/s): 0.7275957614E-011 week: 288 ******** Week 288 almanac for PRN-15 ******** ID: 15 Health: 000 Eccentricity: 0.1617097855E-001 Time of Applicability(s): 405504.0000 Orbital Inclination(rad): 0.9363358808 Rate of Right Ascen(r/s): -0.8468924193E-008 SQRT(A) (m 1/2): 5153.641602 Right Ascen at Week(rad): 0.1451903453E+001 Argument of Perigee(rad): 1.368355804 Mean Anom(rad): 0.1664842906E+001 Af0(s): 0.2164840698E-003 Af1(s/s): 0.3637978807E-011 week: 288 ******** Week 288 almanac for PRN-16 ******** ID: 16 Health: 000 Eccentricity: 0.1406860352E-001 Time of Applicability(s): 405504.0000 Orbital Inclination(rad): 0.9611971554 Rate of Right Ascen(r/s): -0.7920329914E-008 SQRT(A) (m 1/2): 5153.592285 Right Ascen at Week(rad): -0.2493558051E+001 Argument of Perigee(rad): 0.848786848 Mean Anom(rad): -0.2636345971E+001 Af0(s): -0.1525878906E-003 Af1(s/s): 0.1091393642E-010 week: 288 ******** Week 288 almanac for PRN-17 ******** ID: 17 Health: 000 Eccentricity: 0.1353502274E-001 Time of Applicability(s): 405504.0000 Orbital Inclination(rad): 0.9664162853 Rate of Right Ascen(r/s): -0.8388920861E-008 SQRT(A) (m 1/2): 5153.501953 Right Ascen at Week(rad): -0.1472419697E+001 Argument of Perigee(rad): -1.286931235 Mean Anom(rad): 0.2592874318E+001 Af0(s): 0.5922317505E-003 Af1(s/s): -0.1455191523E-010 week: 288 ******** Week 288 almanac for PRN-18 ******** ID: 18 Health: 000 Eccentricity: 0.4778385162E-002 Time of Applicability(s): 405504.0000 Orbital Inclination(rad): 0.9745535740 Rate of Right Ascen(r/s): -0.7771752296E-008 SQRT(A) (m 1/2): 5153.689941 Right Ascen at Week(rad): -0.4663346536E+000 Argument of Perigee(rad): -2.970240333 Mean Anom(rad): 0.6647488517E+000 Af0(s): -0.6580352783E-003 Af1(s/s): 0.0000000000E+000 week: 288 ******** Week 288 almanac for PRN-19 ******** ID: 19 Health: 000 Eccentricity: 0.9979724884E-002 Time of Applicability(s): 405504.0000 Orbital Inclination(rad): 0.9656193344 Rate of Right Ascen(r/s): -0.8388920861E-008 SQRT(A) (m 1/2): 5153.687012 Right Ascen at Week(rad): -0.1428151843E+001 Argument of Perigee(rad): 2.666402781 Mean Anom(rad): -0.1786581659E+001 Af0(s): 0.5512237549E-003 Af1(s/s): 0.3637978807E-011 week: 288 ******** Week 288 almanac for PRN-20 ******** ID: 20 Health: 000 Eccentricity: 0.3820896149E-002 Time of Applicability(s): 405504.0000 Orbital Inclination(rad): 0.9559900097 Rate of Right Ascen(r/s): -0.7760323249E-008 SQRT(A) (m 1/2): 5153.572266 Right Ascen at Week(rad): 0.3823885287E+000 Argument of Perigee(rad): -2.508561551 Mean Anom(rad): 0.1097281250E+001 Af0(s): 0.3700256348E-003 Af1(s/s): 0.0000000000E+000 week: 288 ******** Week 288 almanac for PRN-21 ******** ID: 21 Health: 000 Eccentricity: 0.2544307709E-001 Time of Applicability(s): 405504.0000 Orbital Inclination(rad): 0.9612091396 Rate of Right Ascen(r/s): -0.7966046104E-008 SQRT(A) (m 1/2): 5153.597656 Right Ascen at Week(rad): -0.5778748309E+000 Argument of Perigee(rad): -0.505333568 Mean Anom(rad): 0.2476143474E+001 Af0(s): 0.9918212891E-004 Af1(s/s): 0.0000000000E+000 week: 288 ******** Week 288 almanac for PRN-22 ******** ID: 22 Health: 000 Eccentricity: 0.1395606995E-001 Time of Applicability(s): 405504.0000 Orbital Inclination(rad): 0.9605440151 Rate of Right Ascen(r/s): -0.7874613724E-008 SQRT(A) (m 1/2): 5153.643555 Right Ascen at Week(rad): -0.2490266883E+001 Argument of Perigee(rad): -1.102487272 Mean Anom(rad): -0.3133850844E+001 Af0(s): -0.7152557373E-004 Af1(s/s): -0.3637978807E-011 week: 288 ******** Week 288 almanac for PRN-23 ******** ID: 23 Health: 000 Eccentricity: 0.4808902740E-002 Time of Applicability(s): 405504.0000 Orbital Inclination(rad): 0.9814385112 Rate of Right Ascen(r/s): -0.7531742299E-008 SQRT(A) (m 1/2): 5153.573242 Right Ascen at Week(rad): 0.5346162730E+000 Argument of Perigee(rad): -2.933424420 Mean Anom(rad): -0.4756718628E+000 Af0(s): 0.3433227539E-003 Af1(s/s): 0.7275957614E-011 week: 288 ******** Week 288 almanac for PRN-24 ******** ID: 24 Health: 000 Eccentricity: 0.1613473892E-001 Time of Applicability(s): 405504.0000 Orbital Inclination(rad): 0.9342566178 Rate of Right Ascen(r/s): -0.8080336578E-008 SQRT(A) (m 1/2): 5153.639160 Right Ascen at Week(rad): 0.2556915652E+001 Argument of Perigee(rad): 1.020077001 Mean Anom(rad): 0.7778507233E+000 Af0(s): -0.4844665527E-003 Af1(s/s): 0.0000000000E+000 week: 288 ******** Week 288 almanac for PRN-25 ******** ID: 25 Health: 000 Eccentricity: 0.1190137863E-001 Time of Applicability(s): 405504.0000 Orbital Inclination(rad): 0.9499140076 Rate of Right Ascen(r/s): -0.7966046104E-008 SQRT(A) (m 1/2): 5153.676270 Right Ascen at Week(rad): -0.2599414335E+001 Argument of Perigee(rad): 1.095506836 Mean Anom(rad): -0.1014973968E+001 Af0(s): 0.4997253418E-003 Af1(s/s): 0.0000000000E+000 week: 288 ******** Week 288 almanac for PRN-26 ******** ID: 26 Health: 000 Eccentricity: 0.9377479553E-002 Time of Applicability(s): 405504.0000 Orbital Inclination(rad): 0.9307212714 Rate of Right Ascen(r/s): -0.8080336578E-008 SQRT(A) (m 1/2): 5153.666504 Right Ascen at Week(rad): -0.2664563952E+001 Argument of Perigee(rad): 0.565833306 Mean Anom(rad): -0.1761644359E+001 Af0(s): 0.5340576172E-004 Af1(s/s): -0.1091393642E-010 week: 288 ******** Week 288 almanac for PRN-27 ******** ID: 27 Health: 000 Eccentricity: 0.1270246506E-001 Time of Applicability(s): 405504.0000 Orbital Inclination(rad): 0.9596751588 Rate of Right Ascen(r/s): -0.8468924193E-008 SQRT(A) (m 1/2): 5153.625000 Right Ascen at Week(rad): -0.1541724095E+001 Argument of Perigee(rad): 0.799344431 Mean Anom(rad): 0.2728662702E+001 Af0(s): -0.3433227539E-004 Af1(s/s): 0.0000000000E+000 week: 288 ******** Week 288 almanac for PRN-28 ******** ID: 28 Health: 000 Eccentricity: 0.4420280457E-003 Time of Applicability(s): 405504.0000 Orbital Inclination(rad): 0.9616465638 Rate of Right Ascen(r/s): -0.7794610391E-008 SQRT(A) (m 1/2): 5153.689453 Right Ascen at Week(rad): 0.2624988671E+001 Argument of Perigee(rad): 1.407674922 Mean Anom(rad): -0.1300032988E+001 Af0(s): -0.4491806030E-003 Af1(s/s): -0.1091393642E-010 week: 288 ******** Week 288 almanac for PRN-29 ******** ID: 29 Health: 000 Eccentricity: 0.2895832062E-002 Time of Applicability(s): 405504.0000 Orbital Inclination(rad): 0.9688910278 Rate of Right Ascen(r/s): -0.8377491813E-008 SQRT(A) (m 1/2): 5153.701172 Right Ascen at Week(rad): -0.1457036446E+001 Argument of Perigee(rad): 2.683242864 Mean Anom(rad): 0.2568447847E+001 Af0(s): -0.5702972412E-003 Af1(s/s): 0.3637978807E-011 week: 288 ******** Week 288 almanac for PRN-30 ******** ID: 30 Health: 000 Eccentricity: 0.7182121277E-002 Time of Applicability(s): 405504.0000 Orbital Inclination(rad): 0.9357606380 Rate of Right Ascen(r/s): -0.8034620388E-008 SQRT(A) (m 1/2): 5153.513184 Right Ascen at Week(rad): 0.2654898300E+001 Argument of Perigee(rad): -2.450370275 Mean Anom(rad): -0.2583873791E+000 Af0(s): -0.3004074097E-003 Af1(s/s): 0.7275957614E-011 week: 288 ******** Week 288 almanac for PRN-31 ******** ID: 31 Health: 000 Eccentricity: 0.1066970825E-001 Time of Applicability(s): 405504.0000 Orbital Inclination(rad): 0.9545578948 Rate of Right Ascen(r/s): -0.7840326581E-008 SQRT(A) (m 1/2): 5153.533691 Right Ascen at Week(rad): 0.2678538682E+001 Argument of Perigee(rad): 0.753544468 Mean Anom(rad): -0.1190384446E+001 Af0(s): -0.2231597900E-003 Af1(s/s): 0.0000000000E+000 week: 288 ******** Week 288 almanac for PRN-32 ******** ID: 32 Health: 000 Eccentricity: 0.7928848267E-002 Time of Applicability(s): 405504.0000 Orbital Inclination(rad): 0.9625573649 Rate of Right Ascen(r/s): -0.8183198006E-008 SQRT(A) (m 1/2): 5153.672363 Right Ascen at Week(rad): 0.1598723690E+001 Argument of Perigee(rad): -2.134734253 Mean Anom(rad): -0.2915317380E+001 Af0(s): -0.5855560303E-003 Af1(s/s): 0.3637978807E-011 week: 288